Wetterdaten: Dienstag, 29.09.2015
Datum Zeit Temp. A. Feuchte A. Luftdruck Regen Wind Richtung Richtung Sonnenschein ET UV Solar Taupunkt Windchill Windben Empfang
29.09.2015 00:04 6,7 C 78 % 1032,5 hPa 0,0 l/m 0,0 km/h (0 Bft) O 81 0 min 0,000 mm 0,0 UV-I 0 W/m 3,1 C 6,7 C 0,0 km/h (0 Bft) 0,00 %
29.09.2015 00:09 6,5 C 79 % 1032,6 hPa 0,0 l/m 0,0 km/h (0 Bft) O 80 0 min 0,000 mm 0,0 UV-I 0 W/m 3,1 C 6,5 C 0,0 km/h (0 Bft) 0,00 %
29.09.2015 00:14 6,2 C 79 % 1032,4 hPa 0,0 l/m 0,0 km/h (0 Bft) NO 49 0 min 0,000 mm 0,0 UV-I 0 W/m 2,8 C 6,2 C 0,0 km/h (0 Bft) 0,00 %
29.09.2015 00:19 6,1 C 80 % 1032,5 hPa 0,0 l/m 0,0 km/h (0 Bft) O 89 0 min 0,000 mm 0,0 UV-I 0 W/m 2,9 C 6,1 C 0,0 km/h (0 Bft) 0,00 %
29.09.2015 00:24 6,0 C 80 % 1032,4 hPa 0,0 l/m 0,0 km/h (0 Bft) SW 221 0 min 0,000 mm 0,0 UV-I 0 W/m 2,8 C 6,0 C 0,0 km/h (0 Bft) 0,00 %
29.09.2015 00:29 5,9 C 81 % 1032,3 hPa 0,0 l/m 0,0 km/h (0 Bft) SW 221 0 min 0,000 mm 0,0 UV-I 0 W/m 2,9 C 5,9 C 0,0 km/h (0 Bft) 0,00 %
29.09.2015 00:34 5,8 C 82 % 1032,4 hPa 0,0 l/m 0,0 km/h (0 Bft) O 87 0 min 0,000 mm 0,0 UV-I 0 W/m 3,0 C 5,8 C 0,0 km/h (0 Bft) 0,00 %
29.09.2015 00:39 5,6 C 83 % 1032,4 hPa 0,0 l/m 0,0 km/h (0 Bft) O 100 0 min 0,000 mm 0,0 UV-I 0 W/m 2,9 C 5,6 C 0,0 km/h (0 Bft) 0,00 %
29.09.2015 00:44 5,4 C 84 % 1032,4 hPa 0,0 l/m 0,0 km/h (0 Bft) O 84 0 min 0,000 mm 0,0 UV-I 0 W/m 2,9 C 5,4 C 0,0 km/h (0 Bft) 0,00 %
29.09.2015 00:49 5,2 C 86 % 1032,4 hPa 0,0 l/m 0,0 km/h (0 Bft) NO 38 0 min 0,000 mm 0,0 UV-I 0 W/m 3,1 C 5,2 C 0,0 km/h (0 Bft) 0,00 %
29.09.2015 00:54 5,1 C 87 % 1032,4 hPa 0,0 l/m 0,0 km/h (0 Bft) NO 38 0 min 0,000 mm 0,0 UV-I 0 W/m 3,1 C 5,1 C 0,0 km/h (0 Bft) 0,00 %
29.09.2015 00:59 5,0 C 88 % 1032,2 hPa 0,0 l/m 0,0 km/h (0 Bft) NO 38 0 min 0,000 mm 0,0 UV-I 0 W/m 3,2 C 5,0 C 0,0 km/h (0 Bft) 0,00 %
29.09.2015 01:04 4,9 C 88 % 1032,3 hPa 0,0 l/m 0,0 km/h (0 Bft) NO 38 0 min 0,000 mm 0,0 UV-I 0 W/m 3,1 C 4,9 C 0,0 km/h (0 Bft) 0,00 %
29.09.2015 01:09 4,8 C 87 % 1032,3 hPa 0,0 l/m 0,0 km/h (0 Bft) NO 38 0 min 0,000 mm 0,0 UV-I 0 W/m 2,8 C 4,8 C 0,0 km/h (0 Bft) 0,00 %
29.09.2015 01:14 4,7 C 87 % 1032,4 hPa 0,0 l/m 0,0 km/h (0 Bft) NO 38 0 min 0,000 mm 0,0 UV-I 0 W/m 2,7 C 4,7 C 0,0 km/h (0 Bft) 0,00 %
29.09.2015 01:19 4,6 C 88 % 1032,3 hPa 0,0 l/m 0,0 km/h (0 Bft) NO 38 0 min 0,000 mm 0,0 UV-I 0 W/m 2,8 C 4,6 C 0,0 km/h (0 Bft) 0,00 %
29.09.2015 01:24 4,5 C 88 % 1032,3 hPa 0,0 l/m 0,0 km/h (0 Bft) NO 38 0 min 0,000 mm 0,0 UV-I 0 W/m 2,7 C 4,5 C 0,0 km/h (0 Bft) 0,00 %
29.09.2015 01:29 4,4 C 88 % 1032,3 hPa 0,0 l/m 0,0 km/h (0 Bft) NO 38 0 min 0,000 mm 0,0 UV-I 0 W/m 2,6 C 4,4 C 0,0 km/h (0 Bft) 0,00 %
29.09.2015 01:34 4,3 C 88 % 1032,1 hPa 0,0 l/m 0,0 km/h (0 Bft) NO 38 0 min 0,000 mm 0,0 UV-I 0 W/m 2,5 C 4,3 C 0,0 km/h (0 Bft) 0,00 %
29.09.2015 01:39 4,2 C 88 % 1032,2 hPa 0,0 l/m 0,0 km/h (0 Bft) NO 38 0 min 0,000 mm 0,0 UV-I 0 W/m 2,4 C 4,2 C 0,0 km/h (0 Bft) 0,00 %
29.09.2015 01:44 4,1 C 88 % 1032,2 hPa 0,0 l/m 0,0 km/h (0 Bft) O 86 0 min 0,000 mm 0,0 UV-I 0 W/m 2,3 C 4,1 C 0,0 km/h (0 Bft) 0,00 %
29.09.2015 01:49 4,2 C 88 % 1032,1 hPa 0,0 l/m 0,0 km/h (0 Bft) O-NO 70 0 min 0,000 mm 0,0 UV-I 0 W/m 2,4 C 4,2 C 0,0 km/h (0 Bft) 0,00 %
29.09.2015 01:54 4,4 C 87 % 1032,1 hPa 0,0 l/m 0,0 km/h (0 Bft) O-NO 76 0 min 0,000 mm 0,0 UV-I 0 W/m 2,4 C 4,4 C 0,0 km/h (0 Bft) 0,00 %
29.09.2015 01:59 4,5 C 87 % 1032,2 hPa 0,0 l/m 0,0 km/h (0 Bft) O-NO 76 0 min 0,000 mm 0,0 UV-I 0 W/m 2,5 C 4,5 C 0,0 km/h (0 Bft) 0,00 %
29.09.2015 02:04 4,5 C 87 % 1032,2 hPa 0,0 l/m 0,0 km/h (0 Bft) O-NO 76 0 min 0,000 mm 0,0 UV-I 0 W/m 2,5 C 4,5 C 0,0 km/h (0 Bft) 0,00 %
29.09.2015 02:09 4,5 C 87 % 1032,2 hPa 0,0 l/m 0,0 km/h (0 Bft) O-NO 76 0 min 0,000 mm 0,0 UV-I 0 W/m 2,5 C 4,5 C 0,0 km/h (0 Bft) 0,00 %
29.09.2015 02:14 4,5 C 87 % 1032,4 hPa 0,0 l/m 0,0 km/h (0 Bft) O-NO 76 0 min 0,000 mm 0,0 UV-I 0 W/m 2,5 C 4,5 C 0,0 km/h (0 Bft) 0,00 %
29.09.2015 02:19 4,5 C 87 % 1032,2 hPa 0,0 l/m 0,0 km/h (0 Bft) O-NO 76 0 min 0,000 mm 0,0 UV-I 0 W/m 2,5 C 4,5 C 0,0 km/h (0 Bft) 0,00 %
29.09.2015 02:24 4,4 C 87 % 1032,3 hPa 0,0 l/m 0,0 km/h (0 Bft) O-NO 76 0 min 0,000 mm 0,0 UV-I 0 W/m 2,4 C 4,4 C 0,0 km/h (0 Bft) 0,00 %
29.09.2015 02:29 4,4 C 87 % 1032,4 hPa 0,0 l/m 0,0 km/h (0 Bft) O-NO 76 0 min 0,000 mm 0,0 UV-I 0 W/m 2,4 C 4,4 C 0,0 km/h (0 Bft) 0,00 %
29.09.2015 02:34 4,3 C 87 % 1032,3 hPa 0,0 l/m 0,0 km/h (0 Bft) O-NO 76 0 min 0,000 mm 0,0 UV-I 0 W/m 2,3 C 4,3 C 0,0 km/h (0 Bft) 0,00 %
29.09.2015 02:39 4,4 C 87 % 1032,1 hPa 0,0 l/m 0,0 km/h (0 Bft) O-NO 76 0 min 0,000 mm 0,0 UV-I 0 W/m 2,4 C 4,4 C 0,0 km/h (0 Bft) 0,00 %
29.09.2015 02:44 4,4 C 86 % 1032,3 hPa 0,0 l/m 0,0 km/h (0 Bft) O-NO 76 0 min 0,000 mm 0,0 UV-I 0 W/m 2,3 C 4,4 C 0,0 km/h (0 Bft) 0,00 %
29.09.2015 02:49 4,6 C 85 % 1032,0 hPa 0,0 l/m 0,0 km/h (0 Bft) O 94 0 min 0,000 mm 0,0 UV-I 0 W/m 2,3 C 4,6 C 0,0 km/h (0 Bft) 0,00 %
29.09.2015 02:54 4,7 C 83 % 1032,2 hPa 0,0 l/m 0,0 km/h (0 Bft) O-NO 73 0 min 0,000 mm 0,0 UV-I 0 W/m 2,1 C 4,7 C 0,0 km/h (0 Bft) 0,00 %
29.09.2015 02:59 4,9 C 84 % 1032,3 hPa 0,0 l/m 0,0 km/h (0 Bft) O-NO 72 0 min 0,000 mm 0,0 UV-I 0 W/m 2,4 C 4,9 C 0,0 km/h (0 Bft) 0,00 %
29.09.2015 03:04 5,0 C 83 % 1032,1 hPa 0,0 l/m 0,0 km/h (0 Bft) O-NO 72 0 min 0,000 mm 0,0 UV-I 0 W/m 2,4 C 5,0 C 0,0 km/h (0 Bft) 0,00 %
29.09.2015 03:09 5,1 C 82 % 1032,2 hPa 0,0 l/m 0,0 km/h (0 Bft) O-NO 72 0 min 0,000 mm 0,0 UV-I 0 W/m 2,3 C 5,1 C 0,0 km/h (0 Bft) 0,00 %
29.09.2015 03:14 5,1 C 83 % 1032,0 hPa 0,0 l/m 0,0 km/h (0 Bft) O-NO 72 0 min 0,000 mm 0,0 UV-I 0 W/m 2,5 C 5,1 C 0,0 km/h (0 Bft) 0,00 %
29.09.2015 03:19 5,2 C 83 % 1032,1 hPa 0,0 l/m 0,0 km/h (0 Bft) O-NO 72 0 min 0,000 mm 0,0 UV-I 0 W/m 2,6 C 5,2 C 0,0 km/h (0 Bft) 0,00 %
29.09.2015 03:24 5,2 C 83 % 1032,2 hPa 0,0 l/m 0,0 km/h (0 Bft) O 83 0 min 0,000 mm 0,0 UV-I 0 W/m 2,6 C 5,2 C 0,0 km/h (0 Bft) 0,00 %
29.09.2015 03:29 5,3 C 84 % 1032,0 hPa 0,0 l/m 0,0 km/h (0 Bft) O 83 0 min 0,000 mm 0,0 UV-I 0 W/m 2,8 C 5,3 C 0,0 km/h (0 Bft) 0,00 %
29.09.2015 03:34 5,4 C 84 % 1032,1 hPa 0,0 l/m 0,0 km/h (0 Bft) NO 44 0 min 0,000 mm 0,0 UV-I 0 W/m 2,9 C 5,4 C 0,0 km/h (0 Bft) 0,00 %
29.09.2015 03:39 5,5 C 85 % 1032,2 hPa 0,0 l/m 0,0 km/h (0 Bft) O-NO 78 0 min 0,000 mm 0,0 UV-I 0 W/m 3,2 C 5,5 C 0,0 km/h (0 Bft) 0,00 %
29.09.2015 03:44 5,6 C 85 % 1032,0 hPa 0,0 l/m 0,0 km/h (0 Bft) O-NO 74 0 min 0,000 mm 0,0 UV-I 0 W/m 3,3 C 5,6 C 0,0 km/h (0 Bft) 0,00 %
29.09.2015 03:49 5,6 C 84 % 1032,1 hPa 0,0 l/m 0,0 km/h (0 Bft) O-SO 103 0 min 0,000 mm 0,0 UV-I 0 W/m 3,1 C 5,6 C 0,0 km/h (0 Bft) 0,00 %
29.09.2015 03:54 5,8 C 82 % 1032,1 hPa 0,0 l/m 0,0 km/h (0 Bft) O-NO 71 0 min 0,000 mm 0,0 UV-I 0 W/m 3,0 C 5,8 C 0,0 km/h (0 Bft) 0,00 %
29.09.2015 03:59 6,1 C 81 % 1032,0 hPa 0,0 l/m 0,0 km/h (0 Bft) O-NO 78 0 min 0,000 mm 0,0 UV-I 0 W/m 3,1 C 6,1 C 0,0 km/h (0 Bft) 0,00 %
29.09.2015 04:04 6,3 C 79 % 1032,0 hPa 0,0 l/m 0,0 km/h (0 Bft) O 89 0 min 0,000 mm 0,0 UV-I 0 W/m 2,9 C 6,3 C 0,0 km/h (0 Bft) 0,00 %
29.09.2015 04:09 6,4 C 79 % 1031,9 hPa 0,0 l/m 0,0 km/h (0 Bft) O-NO 62 0 min 0,000 mm 0,0 UV-I 0 W/m 3,0 C 6,4 C 0,0 km/h (0 Bft) 0,00 %
29.09.2015 04:14 6,5 C 78 % 1032,0 hPa 0,0 l/m 0,0 km/h (0 Bft) O 100 0 min 0,000 mm 0,0 UV-I 0 W/m 2,9 C 6,5 C 0,0 km/h (0 Bft) 0,00 %
29.09.2015 04:19 6,6 C 78 % 1032,0 hPa 0,0 l/m 0,0 km/h (0 Bft) O-NO 69 0 min 0,000 mm 0,0 UV-I 0 W/m 3,0 C 6,6 C 0,0 km/h (0 Bft) 0,00 %
29.09.2015 04:24 6,7 C 78 % 1032,2 hPa 0,0 l/m 0,0 km/h (0 Bft) O 82 0 min 0,000 mm 0,0 UV-I 0 W/m 3,1 C 6,7 C 0,0 km/h (0 Bft) 0,00 %
29.09.2015 04:29 6,8 C 76 % 1032,0 hPa 0,0 l/m 0,0 km/h (0 Bft) O-SO 121 0 min 0,000 mm 0,0 UV-I 0 W/m 2,9 C 6,8 C 0,0 km/h (0 Bft) 0,00 %
29.09.2015 04:34 6,9 C 75 % 1031,8 hPa 0,0 l/m 0,0 km/h (0 Bft) O 86 0 min 0,000 mm 0,0 UV-I 0 W/m 2,8 C 6,9 C 0,0 km/h (0 Bft) 0,00 %
29.09.2015 04:39 7,0 C 75 % 1032,0 hPa 0,0 l/m 0,0 km/h (0 Bft) O-NO 73 0 min 0,000 mm 0,0 UV-I 0 W/m 2,9 C 7,0 C 0,0 km/h (0 Bft) 0,00 %
29.09.2015 04:44 7,0 C 75 % 1032,0 hPa 0,0 l/m 0,0 km/h (0 Bft) O 87 0 min 0,000 mm 0,0 UV-I 0 W/m 2,9 C 7,0 C 0,0 km/h (0 Bft) 0,00 %
29.09.2015 04:49 7,1 C 76 % 1031,9 hPa 0,0 l/m 0,0 km/h (0 Bft) O 82 0 min 0,000 mm 0,0 UV-I 0 W/m 3,2 C 7,1 C 0,0 km/h (0 Bft) 0,00 %
29.09.2015 04:54 7,0 C 78 % 1031,9 hPa 0,0 l/m 0,0 km/h (0 Bft) O-NO 74 0 min 0,000 mm 0,0 UV-I 0 W/m 3,4 C 7,0 C 0,0 km/h (0 Bft) 0,00 %
29.09.2015 04:59 6,9 C 78 % 1032,0 hPa 0,0 l/m 0,0 km/h (0 Bft) O 81 0 min 0,000 mm 0,0 UV-I 0 W/m 3,3 C 6,9 C 0,0 km/h (0 Bft) 0,00 %
29.09.2015 05:04 6,8 C 78 % 1032,0 hPa 0,0 l/m 0,0 km/h (0 Bft) O 79 0 min 0,000 mm 0,0 UV-I 0 W/m 3,2 C 6,8 C 0,0 km/h (0 Bft) 0,00 %
29.09.2015 05:09 6,8 C 78 % 1031,9 hPa 0,0 l/m 0,0 km/h (0 Bft) O 91 0 min 0,000 mm 0,0 UV-I 0 W/m 3,2 C 6,8 C 0,0 km/h (0 Bft) 0,00 %
29.09.2015 05:14 6,7 C 78 % 1032,0 hPa 0,0 l/m 0,0 km/h (0 Bft) O 79 0 min 0,000 mm 0,0 UV-I 0 W/m 3,1 C 6,7 C 0,0 km/h (0 Bft) 0,00 %
29.09.2015 05:19 6,7 C 80 % 1032,0 hPa 0,0 l/m 0,0 km/h (0 Bft) O-NO 59 0 min 0,000 mm 0,0 UV-I 0 W/m 3,5 C 6,7 C 0,0 km/h (0 Bft) 0,00 %
29.09.2015 05:24 6,7 C 80 % 1031,9 hPa 0,0 l/m 0,0 km/h (0 Bft) O-NO 76 0 min 0,000 mm 0,0 UV-I 0 W/m 3,5 C 6,7 C 0,0 km/h (0 Bft) 0,00 %
29.09.2015 05:29 6,7 C 80 % 1032,1 hPa 0,0 l/m 0,0 km/h (0 Bft) O 85 0 min 0,000 mm 0,0 UV-I 0 W/m 3,5 C 6,7 C 0,0 km/h (0 Bft) 0,00 %
29.09.2015 05:34 6,6 C 79 % 1032,1 hPa 0,0 l/m 0,0 km/h (0 Bft) O 80 0 min 0,000 mm 0,0 UV-I 0 W/m 3,2 C 6,6 C 0,0 km/h (0 Bft) 0,00 %
29.09.2015 05:39 6,6 C 79 % 1032,1 hPa 0,0 l/m 0,0 km/h (0 Bft) O 79 0 min 0,000 mm 0,0 UV-I 0 W/m 3,2 C 6,6 C 0,0 km/h (0 Bft) 0,00 %
29.09.2015 05:44 6,6 C 80 % 1032,0 hPa 0,0 l/m 0,0 km/h (0 Bft) NO 43 0 min 0,000 mm 0,0 UV-I 0 W/m 3,4 C 6,6 C 0,0 km/h (0 Bft) 0,00 %
29.09.2015 05:49 6,6 C 80 % 1032,0 hPa 0,0 l/m 0,0 km/h (0 Bft) NO 43 0 min 0,000 mm 0,0 UV-I 0 W/m 3,4 C 6,6 C 0,0 km/h (0 Bft) 0,00 %
29.09.2015 05:54 6,6 C 82 % 1032,1 hPa 0,0 l/m 0,0 km/h (0 Bft) NO 43 0 min 0,000 mm 0,0 UV-I 0 W/m 3,8 C 6,6 C 0,0 km/h (0 Bft) 0,00 %
29.09.2015 05:59 6,6 C 82 % 1032,3 hPa 0,0 l/m 0,0 km/h (0 Bft) NO 43 0 min 0,000 mm 0,0 UV-I 0 W/m 3,8 C 6,6 C 0,0 km/h (0 Bft) 0,00 %
29.09.2015 06:04 6,6 C 83 % 1032,2 hPa 0,0 l/m 0,0 km/h (0 Bft) NO 53 0 min 0,000 mm 0,0 UV-I 0 W/m 3,9 C 6,6 C 0,0 km/h (0 Bft) 0,00 %
29.09.2015 06:09 6,6 C 83 % 1032,2 hPa 0,0 l/m 0,0 km/h (0 Bft) O-NO 60 0 min 0,000 mm 0,0 UV-I 0 W/m 3,9 C 6,6 C 0,0 km/h (0 Bft) 0,00 %
29.09.2015 06:14 6,6 C 82 % 1032,1 hPa 0,0 l/m 0,0 km/h (0 Bft) NO 52 0 min 0,000 mm 0,0 UV-I 0 W/m 3,8 C 6,6 C 0,0 km/h (0 Bft) 0,00 %
29.09.2015 06:19 6,6 C 80 % 1032,3 hPa 0,0 l/m 0,0 km/h (0 Bft) O-NO 78 0 min 0,000 mm 0,0 UV-I 0 W/m 3,4 C 6,6 C 0,0 km/h (0 Bft) 0,00 %
29.09.2015 06:24 6,8 C 81 % 1032,2 hPa 0,0 l/m 0,0 km/h (0 Bft) O-NO 70 0 min 0,000 mm 0,0 UV-I 0 W/m 3,8 C 6,8 C 0,0 km/h (0 Bft) 0,00 %
29.09.2015 06:29 6,9 C 80 % 1032,2 hPa 0,0 l/m 0,0 km/h (0 Bft) O-NO 58 0 min 0,000 mm 0,0 UV-I 0 W/m 3,7 C 6,9 C 0,0 km/h (0 Bft) 0,00 %
29.09.2015 06:34 7,0 C 81 % 1032,3 hPa 0,0 l/m 0,0 km/h (0 Bft) NO 56 0 min 0,000 mm 0,0 UV-I 0 W/m 4,0 C 7,0 C 0,0 km/h (0 Bft) 0,00 %
29.09.2015 06:39 7,0 C 80 % 1032,1 hPa 0,0 l/m 0,0 km/h (0 Bft) NO 56 0 min 0,000 mm 0,0 UV-I 0 W/m 3,8 C 7,0 C 0,0 km/h (0 Bft) 0,00 %
29.09.2015 06:44 7,0 C 81 % 1032,1 hPa 0,0 l/m 0,0 km/h (0 Bft) NO 51 0 min 0,000 mm 0,0 UV-I 0 W/m 4,0 C 7,0 C 0,0 km/h (0 Bft) 0,00 %
29.09.2015 06:49 7,0 C 81 % 1032,1 hPa 0,0 l/m 0,0 km/h (0 Bft) NO 52 0 min 0,000 mm 0,0 UV-I 0 W/m 4,0 C 7,0 C 0,0 km/h (0 Bft) 0,00 %
29.09.2015 06:54 7,0 C 80 % 1032,2 hPa 0,0 l/m 0,0 km/h (0 Bft) O-NO 57 0 min 0,000 mm 0,0 UV-I 0 W/m 3,8 C 7,0 C 0,0 km/h (0 Bft) 0,00 %
29.09.2015 06:59 7,0 C 80 % 1032,4 hPa 0,0 l/m 0,0 km/h (0 Bft) NO 51 0 min 0,000 mm 0,0 UV-I 0 W/m 3,8 C 7,0 C 0,0 km/h (0 Bft) 0,00 %
29.09.2015 07:04 7,0 C 80 % 1032,4 hPa 0,0 l/m 0,0 km/h (0 Bft) NO 50 0 min 0,000 mm 0,0 UV-I 0 W/m 3,8 C 7,0 C 0,0 km/h (0 Bft) 0,00 %
29.09.2015 07:09 7,1 C 80 % 1032,3 hPa 0,0 l/m 0,0 km/h (0 Bft) O-NO 63 0 min 0,000 mm 0,0 UV-I 0 W/m 3,9 C 7,1 C 0,0 km/h (0 Bft) 0,00 %
29.09.2015 07:14 7,1 C 79 % 1032,3 hPa 0,0 l/m 0,0 km/h (0 Bft) O-NO 67 0 min 0,000 mm 0,0 UV-I 4 W/m 3,7 C 7,1 C 0,0 km/h (0 Bft) 0,00 %
29.09.2015 07:19 7,2 C 77 % 1032,5 hPa 0,0 l/m 0,0 km/h (0 Bft) O-NO 71 0 min 0,000 mm 0,0 UV-I 7 W/m 3,4 C 7,2 C 0,0 km/h (0 Bft) 0,00 %
29.09.2015 07:24 7,4 C 75 % 1032,4 hPa 0,0 l/m 0,4 km/h (0 Bft) O-NO 76 0 min 0,000 mm 0,0 UV-I 16 W/m 3,3 C 7,4 C 4,0 km/h (1 Bft) 0,00 %
29.09.2015 07:29 7,5 C 74 % 1032,7 hPa 0,0 l/m 0,4 km/h (0 Bft) O-NO 62 0 min 0,000 mm 0,0 UV-I 22 W/m 3,2 C 7,5 C 4,0 km/h (1 Bft) 0,00 %
29.09.2015 07:34 7,7 C 74 % 1032,4 hPa 0,0 l/m 0,0 km/h (0 Bft) NO 52 0 min 0,000 mm 0,0 UV-I 28 W/m 3,4 C 7,7 C 0,0 km/h (0 Bft) 0,00 %
29.09.2015 07:39 7,8 C 74 % 1032,3 hPa 0,0 l/m 0,4 km/h (0 Bft) O-NO 74 0 min 0,000 mm 0,0 UV-I 31 W/m 3,5 C 7,8 C 4,0 km/h (1 Bft) 0,00 %
29.09.2015 07:44 7,8 C 74 % 1032,7 hPa 0,0 l/m 0,4 km/h (0 Bft) O-NO 60 0 min 0,000 mm 0,0 UV-I 29 W/m 3,5 C 7,8 C 4,0 km/h (1 Bft) 0,00 %
29.09.2015 07:49 7,8 C 74 % 1032,7 hPa 0,0 l/m 1,4 km/h (1 Bft) O-NO 69 0 min 0,000 mm 0,0 UV-I 35 W/m 3,5 C 7,8 C 4,0 km/h (1 Bft) 0,00 %
29.09.2015 07:54 7,9 C 73 % 1032,4 hPa 0,0 l/m 0,0 km/h (0 Bft) O-NO 64 0 min 0,000 mm 0,0 UV-I 42 W/m 3,4 C 7,9 C 0,0 km/h (0 Bft) 0,00 %
29.09.2015 07:59 7,9 C 74 % 1032,7 hPa 0,0 l/m 0,0 km/h (0 Bft) O 88 0 min 0,000 mm 0,0 UV-I 42 W/m 3,6 C 7,9 C 0,0 km/h (0 Bft) 0,00 %
29.09.2015 08:04 8,0 C 74 % 1032,5 hPa 0,0 l/m 0,0 km/h (0 Bft) O-NO 73 0 min 0,000 mm 0,0 UV-I 39 W/m 3,7 C 8,0 C 0,0 km/h (0 Bft) 0,00 %
29.09.2015 08:09 8,0 C 74 % 1032,7 hPa 0,0 l/m 0,0 km/h (0 Bft) O 90 0 min 0,000 mm 0,0 UV-I 40 W/m 3,7 C 8,0 C 0,0 km/h (0 Bft) 0,00 %
29.09.2015 08:14 8,0 C 74 % 1032,5 hPa 0,0 l/m 0,0 km/h (0 Bft) O 89 0 min 0,000 mm 0,0 UV-I 47 W/m 3,7 C 8,0 C 0,0 km/h (0 Bft) 0,00 %
29.09.2015 08:19 8,0 C 74 % 1032,5 hPa 0,0 l/m 0,0 km/h (0 Bft) O 91 0 min 0,000 mm 0,0 UV-I 76 W/m 3,7 C 8,0 C 0,0 km/h (0 Bft) 0,00 %
29.09.2015 08:24 8,0 C 75 % 1032,3 hPa 0,0 l/m 1,8 km/h (1 Bft) O 81 0 min 0,000 mm 0,0 UV-I 93 W/m 3,8 C 8,0 C 4,0 km/h (1 Bft) 0,00 %
29.09.2015 08:29 8,2 C 74 % 1032,2 hPa 0,0 l/m 1,8 km/h (1 Bft) O 92 0 min 0,000 mm 1,0 UV-I 123 W/m 3,8 C 8,2 C 4,0 km/h (1 Bft) 0,00 %
29.09.2015 08:34 8,5 C 72 % 1032,2 hPa 0,0 l/m 0,0 km/h (0 Bft) O-NO 66 5 min 0,000 mm 1,0 UV-I 152 W/m 3,7 C 8,5 C 0,0 km/h (0 Bft) 0,00 %
29.09.2015 08:39 9,2 C 69 % 1032,1 hPa 0,0 l/m 0,4 km/h (0 Bft) O-NO 74 5 min 0,000 mm 1,0 UV-I 149 W/m 3,8 C 9,2 C 4,0 km/h (1 Bft) 0,00 %
29.09.2015 08:44 9,8 C 68 % 1032,1 hPa 0,0 l/m 1,8 km/h (1 Bft) O 80 0 min 0,000 mm 1,0 UV-I 151 W/m 4,2 C 9,8 C 4,0 km/h (1 Bft) 0,00 %
29.09.2015 08:49 10,1 C 67 % 1032,3 hPa 0,0 l/m 1,8 km/h (1 Bft) NO 48 0 min 0,000 mm 1,0 UV-I 124 W/m 4,3 C 10,1 C 4,0 km/h (1 Bft) 0,00 %
29.09.2015 08:54 10,2 C 66 % 1032,4 hPa 0,0 l/m 2,9 km/h (1 Bft) O-NO 76 0 min 0,000 mm 1,0 UV-I 123 W/m 4,1 C 10,2 C 4,0 km/h (1 Bft) 0,00 %
29.09.2015 08:59 10,3 C 66 % 1032,4 hPa 0,0 l/m 0,0 km/h (0 Bft) O-NO 67 0 min 0,000 mm 1,0 UV-I 102 W/m 4,2 C 10,3 C 0,0 km/h (0 Bft) 0,00 %
29.09.2015 09:04 10,3 C 66 % 1032,5 hPa 0,0 l/m 2,2 km/h (1 Bft) O-NO 65 0 min 0,000 mm 1,0 UV-I 92 W/m 4,2 C 10,3 C 7,9 km/h (2 Bft) 0,00 %
29.09.2015 09:09 10,1 C 69 % 1032,2 hPa 0,0 l/m 5,4 km/h (1 Bft) O 89 0 min 0,000 mm 1,0 UV-I 115 W/m 4,7 C 10,1 C 7,9 km/h (2 Bft) 0,00 %
29.09.2015 09:14 10,1 C 66 % 1032,3 hPa 0,0 l/m 4,7 km/h (1 Bft) O 80 0 min 0,000 mm 1,0 UV-I 119 W/m 4,0 C 10,1 C 7,9 km/h (2 Bft) 0,00 %
29.09.2015 09:19 10,4 C 65 % 1032,3 hPa 0,0 l/m 2,2 km/h (1 Bft) O-NO 61 0 min 0,000 mm 1,0 UV-I 127 W/m 4,1 C 10,4 C 4,0 km/h (1 Bft) 0,00 %
29.09.2015 09:24 10,5 C 65 % 1032,4 hPa 0,0 l/m 6,5 km/h (2 Bft) O 94 0 min 0,000 mm 1,0 UV-I 146 W/m 4,2 C 10,5 C 11,9 km/h (2 Bft) 0,00 %
29.09.2015 09:29 10,3 C 67 % 1032,5 hPa 0,0 l/m 1,4 km/h (1 Bft) NO 51 0 min 0,000 mm 1,0 UV-I 162 W/m 4,4 C 10,3 C 4,0 km/h (1 Bft) 0,00 %
29.09.2015 09:34 10,0 C 68 % 1032,5 hPa 0,0 l/m 0,0 km/h (0 Bft) O-NO 58 0 min 0,000 mm 1,0 UV-I 177 W/m 4,4 C 10,0 C 0,0 km/h (0 Bft) 0,00 %
29.09.2015 09:39 10,1 C 67 % 1032,4 hPa 0,0 l/m 6,5 km/h (2 Bft) O-NO 76 0 min 0,000 mm 1,0 UV-I 192 W/m 4,3 C 10,1 C 7,9 km/h (2 Bft) 0,00 %
29.09.2015 09:44 10,3 C 69 % 1032,5 hPa 0,0 l/m 0,7 km/h (0 Bft) O 101 0 min 0,000 mm 1,0 UV-I 228 W/m 4,9 C 10,3 C 4,0 km/h (1 Bft) 0,00 %
29.09.2015 09:49 10,5 C 64 % 1032,5 hPa 0,0 l/m 9,4 km/h (2 Bft) SO 125 0 min 0,000 mm 1,0 UV-I 227 W/m 4,0 C 8,5 C 11,9 km/h (2 Bft) 0,00 %
29.09.2015 09:54 10,7 C 65 % 1032,2 hPa 0,0 l/m 0,0 km/h (0 Bft) NO 45 5 min 0,000 mm 1,0 UV-I 290 W/m 4,4 C 10,7 C 0,0 km/h (0 Bft) 0,00 %
29.09.2015 09:59 10,9 C 62 % 1032,4 hPa 0,0 l/m 5,8 km/h (2 Bft) O-NO 72 0 min 0,000 mm 1,0 UV-I 206 W/m 3,9 C 10,9 C 7,9 km/h (2 Bft) 0,00 %
29.09.2015 10:04 11,2 C 60 % 1032,3 hPa 0,0 l/m 0,0 km/h (0 Bft) NO 40 0 min 0,000 mm 1,0 UV-I 215 W/m 3,7 C 11,2 C 0,0 km/h (0 Bft) 0,00 %
29.09.2015 10:09 11,5 C 59 % 1032,2 hPa 0,0 l/m 2,9 km/h (1 Bft) O-NO 67 0 min 0,000 mm 1,0 UV-I 229 W/m 3,8 C 11,5 C 4,0 km/h (1 Bft) 0,00 %
29.09.2015 10:14 11,8 C 59 % 1032,4 hPa 0,0 l/m 2,2 km/h (1 Bft) O 84 0 min 0,000 mm 1,0 UV-I 199 W/m 4,1 C 11,8 C 4,0 km/h (1 Bft) 0,00 %
29.09.2015 10:19 12,0 C 58 % 1032,5 hPa 0,0 l/m 2,9 km/h (1 Bft) O 82 0 min 0,000 mm 1,0 UV-I 212 W/m 4,0 C 12,0 C 4,0 km/h (1 Bft) 0,00 %
29.09.2015 10:24 12,1 C 59 % 1032,4 hPa 0,0 l/m 7,2 km/h (2 Bft) O-SO 110 0 min 0,000 mm 1,0 UV-I 210 W/m 4,3 C 11,6 C 7,9 km/h (2 Bft) 0,00 %
29.09.2015 10:29 12,1 C 59 % 1032,2 hPa 0,0 l/m 2,9 km/h (1 Bft) O-SO 118 0 min 0,000 mm 1,0 UV-I 214 W/m 4,3 C 12,1 C 4,0 km/h (1 Bft) 0,00 %
29.09.2015 10:34 12,1 C 58 % 1032,2 hPa 0,0 l/m 4,3 km/h (1 Bft) O-NO 58 0 min 0,000 mm 1,0 UV-I 226 W/m 4,1 C 12,1 C 7,9 km/h (2 Bft) 0,00 %
29.09.2015 10:39 12,1 C 59 % 1032,4 hPa 0,0 l/m 0,4 km/h (0 Bft) O 95 0 min 0,000 mm 2,0 UV-I 236 W/m 4,3 C 12,1 C 4,0 km/h (1 Bft) 0,00 %
29.09.2015 10:44 12,2 C 58 % 1032,2 hPa 0,0 l/m 0,0 km/h (0 Bft) NO 47 0 min 0,000 mm 2,0 UV-I 248 W/m 4,2 C 12,2 C 0,0 km/h (0 Bft) 0,00 %
29.09.2015 10:49 12,5 C 57 % 1032,1 hPa 0,0 l/m 0,4 km/h (0 Bft) O-NO 73 0 min 0,000 mm 1,0 UV-I 266 W/m 4,2 C 12,5 C 4,0 km/h (1 Bft) 0,00 %
29.09.2015 10:54 12,6 C 57 % 1032,3 hPa 0,0 l/m 2,9 km/h (1 Bft) O-NO 64 0 min 0,000 mm 2,0 UV-I 274 W/m 4,3 C 12,6 C 4,0 km/h (1 Bft) 0,00 %
29.09.2015 10:59 12,7 C 56 % 1032,3 hPa 0,0 l/m 3,2 km/h (1 Bft) O 82 0 min 0,000 mm 2,0 UV-I 294 W/m 4,2 C 12,7 C 7,9 km/h (2 Bft) 0,00 %
29.09.2015 11:04 12,8 C 54 % 1032,3 hPa 0,0 l/m 5,4 km/h (1 Bft) O 95 0 min 0,000 mm 2,0 UV-I 303 W/m 3,7 C 12,8 C 7,9 km/h (2 Bft) 0,00 %
29.09.2015 11:09 13,0 C 54 % 1032,2 hPa 0,0 l/m 1,8 km/h (1 Bft) O 101 5 min 0,000 mm 2,0 UV-I 345 W/m 3,9 C 13,0 C 4,0 km/h (1 Bft) 0,00 %
29.09.2015 11:14 13,1 C 55 % 1032,0 hPa 0,0 l/m 14,8 km/h (3 Bft) O 87 5 min 0,000 mm 2,0 UV-I 388 W/m 4,3 C 9,0 C 15,8 km/h (3 Bft) 0,00 %
29.09.2015 11:19 13,3 C 54 % 1032,1 hPa 0,0 l/m 0,0 km/h (0 Bft) O-NO 66 5 min 0,000 mm 2,0 UV-I 380 W/m 4,2 C 13,3 C 0,0 km/h (0 Bft) 0,00 %
29.09.2015 11:24 13,2 C 58 % 1032,2 hPa 0,0 l/m 7,2 km/h (2 Bft) O-NO 76 5 min 0,000 mm 2,0 UV-I 392 W/m 5,1 C 12,7 C 11,9 km/h (2 Bft) 0,00 %
29.09.2015 11:29 13,0 C 57 % 1031,9 hPa 0,0 l/m 0,0 km/h (0 Bft) O 99 5 min 0,000 mm 2,0 UV-I 388 W/m 4,7 C 13,0 C 0,0 km/h (0 Bft) 0,00 %
29.09.2015 11:34 13,3 C 55 % 1032,3 hPa 0,0 l/m 6,8 km/h (2 Bft) O-NO 73 0 min 0,000 mm 1,0 UV-I 178 W/m 4,5 C 13,1 C 11,9 km/h (2 Bft) 0,00 %
29.09.2015 11:39 13,5 C 55 % 1031,9 hPa 0,0 l/m 7,2 km/h (2 Bft) O 94 5 min 0,000 mm 2,0 UV-I 462 W/m 4,6 C 13,0 C 11,9 km/h (2 Bft) 0,00 %
29.09.2015 11:44 13,4 C 56 % 1032,3 hPa 0,0 l/m 2,2 km/h (1 Bft) O-NO 64 0 min 0,000 mm 1,0 UV-I 144 W/m 4,8 C 13,4 C 4,0 km/h (1 Bft) 0,00 %
29.09.2015 11:49 13,3 C 57 % 1031,9 hPa 0,0 l/m 7,2 km/h (2 Bft) O-NO 69 5 min 0,000 mm 2,0 UV-I 460 W/m 5,0 C 12,8 C 11,9 km/h (2 Bft) 0,00 %
29.09.2015 11:54 13,4 C 55 % 1031,9 hPa 0,0 l/m 1,8 km/h (1 Bft) NO 46 5 min 0,000 mm 2,0 UV-I 530 W/m 4,5 C 13,4 C 4,0 km/h (1 Bft) 0,00 %
29.09.2015 11:59 13,4 C 55 % 1031,8 hPa 0,0 l/m 5,8 km/h (2 Bft) O-NO 75 5 min 0,000 mm 2,0 UV-I 537 W/m 4,5 C 13,4 C 7,9 km/h (2 Bft) 0,00 %
29.09.2015 12:04 13,4 C 55 % 1031,9 hPa 0,0 l/m 8,3 km/h (2 Bft) SO 125 0 min 0,000 mm 2,0 UV-I 245 W/m 4,5 C 12,2 C 15,8 km/h (3 Bft) 0,00 %
29.09.2015 12:09 13,3 C 56 % 1031,7 hPa 0,0 l/m 1,4 km/h (1 Bft) O 82 5 min 0,000 mm 2,0 UV-I 349 W/m 4,7 C 13,3 C 4,0 km/h (1 Bft) 0,00 %
29.09.2015 12:14 13,3 C 56 % 1032,0 hPa 0,0 l/m 6,5 km/h (2 Bft) O-NO 68 0 min 0,000 mm 1,0 UV-I 197 W/m 4,7 C 13,3 C 7,9 km/h (2 Bft) 0,00 %
29.09.2015 12:19 13,4 C 56 % 1032,0 hPa 0,0 l/m 9,0 km/h (2 Bft) O-SO 106 0 min 0,000 mm 2,0 UV-I 258 W/m 4,8 C 11,9 C 11,9 km/h (2 Bft) 0,00 %
29.09.2015 12:24 13,1 C 56 % 1031,4 hPa 0,0 l/m 10,8 km/h (2 Bft) O-SO 107 5 min 0,000 mm 2,0 UV-I 630 W/m 4,5 C 10,6 C 11,9 km/h (2 Bft) 0,00 %
29.09.2015 12:29 13,2 C 54 % 1031,2 hPa 0,0 l/m 13,3 km/h (3 Bft) O 98 5 min 0,000 mm 2,0 UV-I 644 W/m 4,1 C 9,7 C 24,1 km/h (4 Bft) 0,00 %
29.09.2015 12:34 13,6 C 55 % 1031,3 hPa 0,0 l/m 2,9 km/h (1 Bft) O-SO 123 5 min 0,000 mm 2,0 UV-I 643 W/m 4,7 C 13,6 C 4,0 km/h (1 Bft) 0,00 %
29.09.2015 12:39 14,0 C 53 % 1031,5 hPa 0,0 l/m 5,8 km/h (2 Bft) O-NO 70 0 min 0,000 mm 1,0 UV-I 283 W/m 4,6 C 14,0 C 11,9 km/h (2 Bft) 0,00 %
29.09.2015 12:44 13,9 C 56 % 1031,6 hPa 0,0 l/m 0,0 km/h (0 Bft) O-SO 120 0 min 0,000 mm 1,0 UV-I 280 W/m 5,3 C 13,9 C 0,0 km/h (0 Bft) 0,00 %
29.09.2015 12:49 13,7 C 55 % 1031,7 hPa 0,0 l/m 7,2 km/h (2 Bft) O-SO 123 0 min 0,000 mm 1,0 UV-I 249 W/m 4,8 C 13,2 C 11,9 km/h (2 Bft) 0,00 %
29.09.2015 12:54 13,5 C 56 % 1032,0 hPa 0,0 l/m 11,9 km/h (2 Bft) O 99 0 min 0,000 mm 1,0 UV-I 193 W/m 4,9 C 10,6 C 15,8 km/h (3 Bft) 0,00 %
29.09.2015 12:59 13,1 C 58 % 1031,9 hPa 0,0 l/m 4,3 km/h (1 Bft) O-SO 119 0 min 0,000 mm 1,0 UV-I 189 W/m 5,0 C 13,1 C 7,9 km/h (2 Bft) 0,00 %
29.09.2015 13:04 12,8 C 59 % 1032,0 hPa 0,0 l/m 2,9 km/h (1 Bft) SO 130 0 min 0,000 mm 1,0 UV-I 199 W/m 5,0 C 12,8 C 4,0 km/h (1 Bft) 0,00 %
29.09.2015 13:09 12,7 C 59 % 1031,8 hPa 0,0 l/m 4,0 km/h (1 Bft) NO 37 0 min 0,000 mm 1,0 UV-I 217 W/m 4,9 C 12,7 C 7,9 km/h (2 Bft) 0,00 %
29.09.2015 13:14 12,8 C 58 % 1031,9 hPa 0,0 l/m 6,8 km/h (2 Bft) O 100 0 min 0,000 mm 1,0 UV-I 227 W/m 4,7 C 12,6 C 7,9 km/h (2 Bft) 0,00 %
29.09.2015 13:19 12,9 C 58 % 1032,0 hPa 0,0 l/m 1,4 km/h (1 Bft) O-SO 110 0 min 0,000 mm 1,0 UV-I 243 W/m 4,8 C 12,9 C 4,0 km/h (1 Bft) 0,00 %
29.09.2015 13:24 13,1 C 57 % 1031,8 hPa 0,0 l/m 4,3 km/h (1 Bft) NO 43 0 min 0,000 mm 2,0 UV-I 260 W/m 4,8 C 13,1 C 7,9 km/h (2 Bft) 0,00 %
29.09.2015 13:29 13,2 C 57 % 1031,5 hPa 0,0 l/m 2,2 km/h (1 Bft) O-SO 102 5 min 0,000 mm 2,0 UV-I 624 W/m 4,9 C 13,2 C 7,9 km/h (2 Bft) 0,00 %
29.09.2015 13:34 13,5 C 54 % 1031,6 hPa 0,0 l/m 14,0 km/h (3 Bft) O-SO 106 5 min 0,000 mm 2,0 UV-I 383 W/m 4,4 C 9,7 C 15,8 km/h (3 Bft) 0,00 %
29.09.2015 13:39 13,7 C 55 % 1031,5 hPa 0,0 l/m 0,4 km/h (0 Bft) O-NO 69 5 min 0,000 mm 2,0 UV-I 354 W/m 4,8 C 13,7 C 4,0 km/h (1 Bft) 0,00 %
29.09.2015 13:44 13,7 C 54 % 1031,4 hPa 0,0 l/m 10,4 km/h (2 Bft) O 98 0 min 0,000 mm 2,0 UV-I 331 W/m 4,6 C 11,5 C 11,9 km/h (2 Bft) 0,00 %
29.09.2015 13:49 13,6 C 55 % 1031,4 hPa 0,0 l/m 7,2 km/h (2 Bft) O-NO 66 0 min 0,000 mm 1,0 UV-I 320 W/m 4,7 C 13,1 C 11,9 km/h (2 Bft) 0,00 %
29.09.2015 13:54 13,5 C 57 % 1031,1 hPa 0,0 l/m 1,8 km/h (1 Bft) O-SO 119 5 min 0,000 mm 2,0 UV-I 361 W/m 5,2 C 13,5 C 7,9 km/h (2 Bft) 0,00 %
29.09.2015 13:59 13,5 C 56 % 1031,3 hPa 0,0 l/m 10,8 km/h (2 Bft) O-SO 108 5 min 0,000 mm 2,0 UV-I 440 W/m 4,9 C 11,1 C 15,8 km/h (3 Bft) 0,00 %
29.09.2015 14:04 13,7 C 54 % 1031,3 hPa 0,0 l/m 0,0 km/h (0 Bft) O 79 5 min 0,000 mm 2,0 UV-I 350 W/m 4,6 C 13,7 C 0,0 km/h (0 Bft) 0,00 %
29.09.2015 14:09 13,9 C 53 % 1031,5 hPa 0,0 l/m 11,9 km/h (2 Bft) O 92 5 min 0,000 mm 2,0 UV-I 338 W/m 4,5 C 11,0 C 15,8 km/h (3 Bft) 0,00 %
29.09.2015 14:14 13,8 C 56 % 1031,3 hPa 0,0 l/m 2,9 km/h (1 Bft) O-NO 74 5 min 0,000 mm 2,0 UV-I 357 W/m 5,2 C 13,8 C 7,9 km/h (2 Bft) 0,00 %
29.09.2015 14:19 13,7 C 54 % 1030,8 hPa 0,0 l/m 4,0 km/h (1 Bft) O-SO 103 5 min 0,000 mm 2,0 UV-I 961 W/m 4,6 C 13,7 C 7,9 km/h (2 Bft) 0,00 %
29.09.2015 14:24 14,1 C 51 % 1030,8 hPa 0,0 l/m 0,0 km/h (0 Bft) O-NO 72 5 min 0,000 mm 2,0 UV-I 644 W/m 4,1 C 14,1 C 0,0 km/h (0 Bft) 0,00 %
29.09.2015 14:29 15,0 C 49 % 1031,2 hPa 0,0 l/m 1,8 km/h (1 Bft) O-SO 122 5 min 0,000 mm 2,0 UV-I 504 W/m 4,4 C 15,0 C 4,0 km/h (1 Bft) 0,00 %
29.09.2015 14:34 15,4 C 49 % 1030,9 hPa 0,0 l/m 4,0 km/h (1 Bft) SO 133 5 min 0,000 mm 2,0 UV-I 784 W/m 4,7 C 15,4 C 7,9 km/h (2 Bft) 0,00 %
29.09.2015 14:39 15,4 C 49 % 1031,1 hPa 0,0 l/m 7,9 km/h (2 Bft) O-SO 118 5 min 0,000 mm 2,0 UV-I 445 W/m 4,7 C 14,6 C 11,9 km/h (2 Bft) 0,00 %
29.09.2015 14:44 15,1 C 50 % 1030,8 hPa 0,0 l/m 2,2 km/h (1 Bft) O-SO 110 5 min 0,000 mm 1,0 UV-I 634 W/m 4,8 C 15,1 C 4,0 km/h (1 Bft) 0,00 %
29.09.2015 14:49 14,7 C 51 % 1031,0 hPa 0,0 l/m 10,8 km/h (2 Bft) O 87 5 min 0,000 mm 1,0 UV-I 692 W/m 4,7 C 12,4 C 15,8 km/h (3 Bft) 0,00 %
29.09.2015 14:54 14,3 C 52 % 1031,2 hPa 0,0 l/m 4,0 km/h (1 Bft) O 93 0 min 0,000 mm 1,0 UV-I 294 W/m 4,6 C 14,3 C 4,0 km/h (1 Bft) 0,00 %
29.09.2015 14:59 14,2 C 52 % 1031,2 hPa 0,0 l/m 6,8 km/h (2 Bft) O-SO 120 5 min 0,000 mm 1,0 UV-I 343 W/m 4,5 C 14,0 C 11,9 km/h (2 Bft) 0,00 %
29.09.2015 15:04 14,2 C 52 % 1030,8 hPa 0,0 l/m 0,0 km/h (0 Bft) O-NO 57 5 min 0,000 mm 1,0 UV-I 526 W/m 4,5 C 14,2 C 0,0 km/h (0 Bft) 0,00 %
29.09.2015 15:09 14,0 C 55 % 1031,1 hPa 0,0 l/m 2,9 km/h (1 Bft) O-NO 57 5 min 0,000 mm 1,0 UV-I 320 W/m 5,1 C 14,0 C 7,9 km/h (2 Bft) 0,00 %
29.09.2015 15:14 13,9 C 56 % 1030,7 hPa 0,0 l/m 6,8 km/h (2 Bft) O 90 5 min 0,000 mm 1,0 UV-I 310 W/m 5,3 C 13,7 C 11,9 km/h (2 Bft) 0,00 %
29.09.2015 15:19 13,9 C 53 % 1030,8 hPa 0,0 l/m 9,4 km/h (2 Bft) O 87 5 min 0,000 mm 2,0 UV-I 428 W/m 4,5 C 12,2 C 11,9 km/h (2 Bft) 0,00 %
29.09.2015 15:24 14,0 C 53 % 1030,5 hPa 0,0 l/m 0,0 km/h (0 Bft) NO 53 5 min 0,000 mm 1,0 UV-I 533 W/m 4,6 C 14,0 C 0,0 km/h (0 Bft) 0,00 %
29.09.2015 15:29 14,2 C 53 % 1030,6 hPa 0,0 l/m 3,2 km/h (1 Bft) O 96 5 min 0,000 mm 1,0 UV-I 546 W/m 4,8 C 14,2 C 4,0 km/h (1 Bft) 0,00 %
29.09.2015 15:34 14,4 C 52 % 1030,8 hPa 0,0 l/m 4,3 km/h (1 Bft) O-NO 62 5 min 0,000 mm 1,0 UV-I 454 W/m 4,7 C 14,4 C 7,9 km/h (2 Bft) 0,00 %
29.09.2015 15:39 14,3 C 53 % 1030,9 hPa 0,0 l/m 1,4 km/h (1 Bft) NO 56 5 min 0,000 mm 1,0 UV-I 262 W/m 4,9 C 14,3 C 4,0 km/h (1 Bft) 0,00 %
29.09.2015 15:45 14,1 C 53 % 1031,1 hPa 0,0 l/m 0,0 km/h (0 Bft) O-NO 61 0 min 0,000 mm 1,0 UV-I 198 W/m 4,7 C 14,1 C 0,0 km/h (0 Bft) 0,00 %
29.09.2015 15:50 14,0 C 55 % 1031,2 hPa 0,0 l/m 2,2 km/h (1 Bft) O-SO 117 0 min 0,000 mm 1,0 UV-I 178 W/m 5,1 C 14,0 C 4,0 km/h (1 Bft) 0,00 %
29.09.2015 15:55 13,9 C 56 % 1031,2 hPa 0,0 l/m 0,4 km/h (0 Bft) NO 56 0 min 0,000 mm 1,0 UV-I 199 W/m 5,3 C 13,9 C 4,0 km/h (1 Bft) 0,00 %
29.09.2015 16:00 13,8 C 56 % 1031,0 hPa 0,0 l/m 4,0 km/h (1 Bft) O-SO 102 0 min 0,000 mm 1,0 UV-I 218 W/m 5,2 C 13,8 C 7,9 km/h (2 Bft) 0,00 %
29.09.2015 16:05 13,7 C 55 % 1031,1 hPa 0,0 l/m 2,9 km/h (1 Bft) O-NO 64 0 min 0,000 mm 1,0 UV-I 222 W/m 4,8 C 13,7 C 4,0 km/h (1 Bft) 0,00 %
29.09.2015 16:10 13,6 C 57 % 1031,0 hPa 0,0 l/m 5,8 km/h (2 Bft) SO 129 5 min 0,000 mm 1,0 UV-I 238 W/m 5,2 C 13,6 C 7,9 km/h (2 Bft) 0,00 %
29.09.2015 16:15 13,6 C 56 % 1031,0 hPa 0,0 l/m 5,8 km/h (2 Bft) O-SO 119 5 min 0,000 mm 1,0 UV-I 221 W/m 5,0 C 13,6 C 7,9 km/h (2 Bft) 0,00 %
29.09.2015 16:20 13,7 C 56 % 1031,2 hPa 0,0 l/m 0,0 km/h (0 Bft) O-NO 66 0 min 0,000 mm 1,0 UV-I 205 W/m 5,1 C 13,7 C 0,0 km/h (0 Bft) 0,00 %
29.09.2015 16:25 13,7 C 56 % 1031,1 hPa 0,0 l/m 4,0 km/h (1 Bft) O-NO 71 0 min 0,000 mm 1,0 UV-I 167 W/m 5,1 C 13,7 C 7,9 km/h (2 Bft) 0,00 %
29.09.2015 16:30 13,6 C 55 % 1031,2 hPa 0,0 l/m 6,8 km/h (2 Bft) O 91 0 min 0,000 mm 1,0 UV-I 122 W/m 4,7 C 13,4 C 11,9 km/h (2 Bft) 0,00 %
29.09.2015 16:35 13,4 C 56 % 1031,1 hPa 0,0 l/m 4,0 km/h (1 Bft) O 101 0 min 0,000 mm 0,0 UV-I 92 W/m 4,8 C 13,4 C 7,9 km/h (2 Bft) 0,00 %
29.09.2015 16:40 13,2 C 58 % 1031,2 hPa 0,0 l/m 2,9 km/h (1 Bft) O-NO 78 0 min 0,000 mm 0,0 UV-I 78 W/m 5,1 C 13,2 C 4,0 km/h (1 Bft) 0,00 %
29.09.2015 16:45 13,0 C 58 % 1031,3 hPa 0,0 l/m 0,4 km/h (0 Bft) O-SO 104 0 min 0,000 mm 1,0 UV-I 88 W/m 4,9 C 13,0 C 4,0 km/h (1 Bft) 0,00 %
29.09.2015 16:50 12,9 C 58 % 1031,1 hPa 0,0 l/m 2,2 km/h (1 Bft) O 91 0 min 0,000 mm 1,0 UV-I 90 W/m 4,8 C 12,9 C 4,0 km/h (1 Bft) 0,00 %
29.09.2015 16:55 12,9 C 59 % 1031,1 hPa 0,0 l/m 1,8 km/h (1 Bft) O-NO 73 0 min 0,000 mm 0,0 UV-I 77 W/m 5,1 C 12,9 C 4,0 km/h (1 Bft) 0,00 %
29.09.2015 17:00 12,8 C 59 % 1031,0 hPa 0,0 l/m 4,0 km/h (1 Bft) O-SO 121 0 min 0,000 mm 0,0 UV-I 62 W/m 5,0 C 12,8 C 7,9 km/h (2 Bft) 0,00 %
29.09.2015 17:05 12,8 C 60 % 1031,6 hPa 0,0 l/m 1,4 km/h (1 Bft) O-SO 102 0 min 0,000 mm 0,0 UV-I 59 W/m 5,2 C 12,8 C 4,0 km/h (1 Bft) 0,00 %
29.09.2015 17:10 12,7 C 61 % 1031,1 hPa 0,0 l/m 0,4 km/h (0 Bft) O 80 0 min 0,000 mm 0,0 UV-I 61 W/m 5,4 C 12,7 C 4,0 km/h (1 Bft) 0,00 %
29.09.2015 17:15 12,7 C 61 % 1031,2 hPa 0,0 l/m 0,0 km/h (0 Bft) O-NO 59 0 min 0,000 mm 0,0 UV-I 66 W/m 5,4 C 12,7 C 0,0 km/h (0 Bft) 0,00 %
29.09.2015 17:20 12,7 C 61 % 1031,2 hPa 0,0 l/m 1,8 km/h (1 Bft) O 93 0 min 0,000 mm 0,0 UV-I 73 W/m 5,4 C 12,7 C 4,0 km/h (1 Bft) 0,00 %
29.09.2015 17:25 12,6 C 62 % 1031,2 hPa 0,0 l/m 4,0 km/h (1 Bft) O 83 0 min 0,000 mm 0,0 UV-I 72 W/m 5,5 C 12,6 C 7,9 km/h (2 Bft) 0,00 %
29.09.2015 17:30 12,5 C 62 % 1031,2 hPa 0,0 l/m 1,8 km/h (1 Bft) O 87 0 min 0,000 mm 0,0 UV-I 62 W/m 5,4 C 12,5 C 4,0 km/h (1 Bft) 0,00 %
29.09.2015 17:35 12,5 C 62 % 1031,3 hPa 0,0 l/m 1,4 km/h (1 Bft) NO 53 0 min 0,000 mm 0,0 UV-I 51 W/m 5,4 C 12,5 C 4,0 km/h (1 Bft) 0,00 %
29.09.2015 17:40 12,5 C 62 % 1031,4 hPa 0,0 l/m 0,0 km/h (0 Bft) O-NO 64 0 min 0,000 mm 0,0 UV-I 46 W/m 5,4 C 12,5 C 0,0 km/h (0 Bft) 0,00 %
29.09.2015 17:45 12,5 C 63 % 1031,2 hPa 0,0 l/m 0,0 km/h (0 Bft) O-SO 102 0 min 0,000 mm 0,0 UV-I 36 W/m 5,7 C 12,5 C 0,0 km/h (0 Bft) 0,00 %
29.09.2015 17:50 12,4 C 63 % 1031,4 hPa 0,0 l/m 0,0 km/h (0 Bft) O-NO 70 0 min 0,000 mm 0,0 UV-I 27 W/m 5,6 C 12,4 C 0,0 km/h (0 Bft) 0,00 %
29.09.2015 17:55 12,4 C 63 % 1031,2 hPa 0,0 l/m 0,0 km/h (0 Bft) O-NO 68 0 min 0,000 mm 0,0 UV-I 21 W/m 5,6 C 12,4 C 0,0 km/h (0 Bft) 0,00 %
29.09.2015 18:00 12,3 C 64 % 1031,3 hPa 0,0 l/m 0,0 km/h (0 Bft) O 84 0 min 0,000 mm 0,0 UV-I 16 W/m 5,7 C 12,3 C 0,0 km/h (0 Bft) 0,00 %
29.09.2015 18:05 12,2 C 64 % 1031,3 hPa 0,0 l/m 0,0 km/h (0 Bft) O-SO 123 0 min 0,000 mm 0,0 UV-I 11 W/m 5,6 C 12,2 C 0,0 km/h (0 Bft) 0,00 %
29.09.2015 18:10 12,1 C 64 % 1031,3 hPa 0,0 l/m 0,0 km/h (0 Bft) O 83 0 min 0,000 mm 0,0 UV-I 9 W/m 5,5 C 12,1 C 0,0 km/h (0 Bft) 0,00 %
29.09.2015 18:15 12,0 C 64 % 1031,5 hPa 0,0 l/m 0,0 km/h (0 Bft) O-NO 62 0 min 0,000 mm 0,0 UV-I 8 W/m 5,4 C 12,0 C 0,0 km/h (0 Bft) 0,00 %
29.09.2015 18:20 11,9 C 66 % 1031,5 hPa 0,0 l/m 0,0 km/h (0 Bft) O-NO 74 0 min 0,000 mm 0,0 UV-I 5 W/m 5,8 C 11,9 C 0,0 km/h (0 Bft) 0,00 %
29.09.2015 18:25 11,8 C 66 % 1031,6 hPa 0,0 l/m 0,0 km/h (0 Bft) O-NO 71 0 min 0,000 mm 0,0 UV-I 1 W/m 5,7 C 11,8 C 0,0 km/h (0 Bft) 0,00 %
29.09.2015 18:30 11,7 C 67 % 1031,7 hPa 0,0 l/m 0,0 km/h (0 Bft) NO 55 0 min 0,000 mm 0,0 UV-I 0 W/m 5,8 C 11,7 C 0,0 km/h (0 Bft) 0,00 %
29.09.2015 18:35 11,6 C 68 % 1031,7 hPa 0,0 l/m 0,0 km/h (0 Bft) O-NO 73 0 min 0,000 mm 0,0 UV-I 0 W/m 5,9 C 11,6 C 0,0 km/h (0 Bft) 0,00 %
29.09.2015 18:40 11,5 C 68 % 1031,5 hPa 0,0 l/m 0,0 km/h (0 Bft) O-NO 68 0 min 0,000 mm 0,0 UV-I 0 W/m 5,8 C 11,5 C 0,0 km/h (0 Bft) 0,00 %
29.09.2015 18:45 11,4 C 69 % 1031,7 hPa 0,0 l/m 0,0 km/h (0 Bft) O 90 0 min 0,000 mm 0,0 UV-I 0 W/m 5,9 C 11,4 C 0,0 km/h (0 Bft) 0,00 %
29.09.2015 18:50 11,3 C 69 % 1031,7 hPa 0,0 l/m 0,0 km/h (0 Bft) O-NO 77 0 min 0,000 mm 0,0 UV-I 0 W/m 5,8 C 11,3 C 0,0 km/h (0 Bft) 0,00 %
29.09.2015 18:55 11,2 C 69 % 1031,6 hPa 0,0 l/m 0,0 km/h (0 Bft) O-NO 65 0 min 0,000 mm 0,0 UV-I 0 W/m 5,7 C 11,2 C 0,0 km/h (0 Bft) 0,00 %
29.09.2015 19:00 11,1 C 70 % 1031,6 hPa 0,0 l/m 0,0 km/h (0 Bft) O-NO 62 0 min 0,000 mm 0,0 UV-I 0 W/m 5,8 C 11,1 C 0,0 km/h (0 Bft) 0,00 %
29.09.2015 19:05 11,1 C 70 % 1031,7 hPa 0,0 l/m 0,0 km/h (0 Bft) O-NO 66 0 min 0,000 mm 0,0 UV-I 0 W/m 5,8 C 11,1 C 0,0 km/h (0 Bft) 0,00 %
29.09.2015 19:10 11,0 C 69 % 1031,7 hPa 0,0 l/m 0,0 km/h (0 Bft) O 89 0 min 0,000 mm 0,0 UV-I 0 W/m 5,5 C 11,0 C 0,0 km/h (0 Bft) 0,00 %
29.09.2015 19:15 11,0 C 69 % 1031,8 hPa 0,0 l/m 0,0 km/h (0 Bft) O-NO 62 0 min 0,000 mm 0,0 UV-I 0 W/m 5,5 C 11,0 C 0,0 km/h (0 Bft) 0,00 %
29.09.2015 19:20 10,9 C 70 % 1031,8 hPa 0,0 l/m 0,0 km/h (0 Bft) O-NO 68 0 min 0,000 mm 0,0 UV-I 0 W/m 5,6 C 10,9 C 0,0 km/h (0 Bft) 0,00 %
29.09.2015 19:25 10,9 C 71 % 1031,7 hPa 0,0 l/m 0,0 km/h (0 Bft) O-NO 66 0 min 0,000 mm 0,0 UV-I 0 W/m 5,9 C 10,9 C 0,0 km/h (0 Bft) 0,00 %
29.09.2015 19:30 10,9 C 71 % 1031,7 hPa 0,0 l/m 0,0 km/h (0 Bft) O-NO 65 0 min 0,000 mm 0,0 UV-I 0 W/m 5,9 C 10,9 C 0,0 km/h (0 Bft) 0,00 %
29.09.2015 19:35 10,8 C 72 % 1031,8 hPa 0,0 l/m 0,0 km/h (0 Bft) O-NO 71 0 min 0,000 mm 0,0 UV-I 0 W/m 6,0 C 10,8 C 0,0 km/h (0 Bft) 0,00 %
29.09.2015 19:40 10,7 C 71 % 1031,7 hPa 0,0 l/m 0,0 km/h (0 Bft) O-NO 66 0 min 0,000 mm 0,0 UV-I 0 W/m 5,7 C 10,7 C 0,0 km/h (0 Bft) 0,00 %
29.09.2015 19:45 10,7 C 72 % 1031,7 hPa 0,0 l/m 0,0 km/h (0 Bft) O 82 0 min 0,000 mm 0,0 UV-I 0 W/m 5,9 C 10,7 C 0,0 km/h (0 Bft) 0,00 %
29.09.2015 19:50 10,6 C 72 % 1031,8 hPa 0,0 l/m 0,0 km/h (0 Bft) O-NO 64 0 min 0,000 mm 0,0 UV-I 0 W/m 5,8 C 10,6 C 0,0 km/h (0 Bft) 0,00 %
29.09.2015 19:55 10,6 C 71 % 1031,6 hPa 0,0 l/m 0,0 km/h (0 Bft) O 90 0 min 0,000 mm 0,0 UV-I 0 W/m 5,6 C 10,6 C 0,0 km/h (0 Bft) 0,00 %
29.09.2015 20:00 10,6 C 71 % 1031,8 hPa 0,0 l/m 0,0 km/h (0 Bft) O 91 0 min 0,000 mm 0,0 UV-I 0 W/m 5,6 C 10,6 C 0,0 km/h (0 Bft) 0,00 %
29.09.2015 20:05 10,6 C 71 % 1031,5 hPa 0,0 l/m 0,0 km/h (0 Bft) O-SO 102 0 min 0,000 mm 0,0 UV-I 0 W/m 5,6 C 10,6 C 0,0 km/h (0 Bft) 0,00 %
29.09.2015 20:10 10,6 C 70 % 1031,7 hPa 0,0 l/m 0,0 km/h (0 Bft) O-NO 65 0 min 0,000 mm 0,0 UV-I 0 W/m 5,4 C 10,6 C 0,0 km/h (0 Bft) 0,00 %
29.09.2015 20:15 10,6 C 71 % 1031,6 hPa 0,0 l/m 0,0 km/h (0 Bft) O-NO 70 0 min 0,000 mm 0,0 UV-I 0 W/m 5,6 C 10,6 C 0,0 km/h (0 Bft) 0,00 %
29.09.2015 20:20 10,6 C 72 % 1031,4 hPa 0,0 l/m 0,0 km/h (0 Bft) O-NO 65 0 min 0,000 mm 0,0 UV-I 0 W/m 5,8 C 10,6 C 0,0 km/h (0 Bft) 0,00 %
29.09.2015 20:25 10,6 C 72 % 1031,6 hPa 0,0 l/m 0,0 km/h (0 Bft) O 84 0 min 0,000 mm 0,0 UV-I 0 W/m 5,8 C 10,6 C 0,0 km/h (0 Bft) 0,00 %
29.09.2015 20:30 10,5 C 72 % 1031,5 hPa 0,0 l/m 0,0 km/h (0 Bft) O-NO 63 0 min 0,000 mm 0,0 UV-I 0 W/m 5,7 C 10,5 C 0,0 km/h (0 Bft) 0,00 %
29.09.2015 20:35 10,5 C 73 % 1031,6 hPa 0,0 l/m 0,0 km/h (0 Bft) O-NO 78 0 min 0,000 mm 0,0 UV-I 0 W/m 5,9 C 10,5 C 0,0 km/h (0 Bft) 0,00 %
29.09.2015 20:40 10,5 C 73 % 1031,5 hPa 0,0 l/m 0,0 km/h (0 Bft) O-NO 70 0 min 0,000 mm 0,0 UV-I 0 W/m 5,9 C 10,5 C 0,0 km/h (0 Bft) 0,00 %
29.09.2015 20:45 10,4 C 74 % 1031,5 hPa 0,0 l/m 0,0 km/h (0 Bft) O-NO 60 0 min 0,000 mm 0,0 UV-I 0 W/m 6,0 C 10,4 C 0,0 km/h (0 Bft) 0,00 %
29.09.2015 20:50 10,3 C 75 % 1031,6 hPa 0,0 l/m 0,0 km/h (0 Bft) O 97 0 min 0,000 mm 0,0 UV-I 0 W/m 6,1 C 10,3 C 0,0 km/h (0 Bft) 0,00 %
29.09.2015 20:55 10,2 C 75 % 1031,4 hPa 0,0 l/m 0,0 km/h (0 Bft) O-NO 65 0 min 0,000 mm 0,0 UV-I 0 W/m 6,0 C 10,2 C 0,0 km/h (0 Bft) 0,00 %
29.09.2015 21:00 10,1 C 75 % 1031,5 hPa 0,0 l/m 0,0 km/h (0 Bft) O-NO 61 0 min 0,000 mm 0,0 UV-I 0 W/m 5,9 C 10,1 C 0,0 km/h (0 Bft) 0,00 %
29.09.2015 21:05 10,1 C 75 % 1031,6 hPa 0,0 l/m 0,0 km/h (0 Bft) O-NO 77 0 min 0,000 mm 0,0 UV-I 0 W/m 5,9 C 10,1 C 0,0 km/h (0 Bft) 0,00 %
29.09.2015 21:10 10,1 C 75 % 1031,6 hPa 0,0 l/m 0,0 km/h (0 Bft) O-NO 70 0 min 0,000 mm 0,0 UV-I 0 W/m 5,9 C 10,1 C 0,0 km/h (0 Bft) 0,00 %
29.09.2015 21:15 10,1 C 76 % 1031,5 hPa 0,0 l/m 0,0 km/h (0 Bft) O-NO 64 0 min 0,000 mm 0,0 UV-I 0 W/m 6,1 C 10,1 C 0,0 km/h (0 Bft) 0,00 %
29.09.2015 21:20 10,1 C 76 % 1031,6 hPa 0,0 l/m 0,0 km/h (0 Bft) O-NO 62 0 min 0,000 mm 0,0 UV-I 0 W/m 6,1 C 10,1 C 0,0 km/h (0 Bft) 0,00 %
29.09.2015 21:25 10,1 C 75 % 1031,7 hPa 0,0 l/m 0,0 km/h (0 Bft) O-NO 58 0 min 0,000 mm 0,0 UV-I 0 W/m 5,9 C 10,1 C 0,0 km/h (0 Bft) 0,00 %
29.09.2015 21:30 10,1 C 74 % 1031,8 hPa 0,0 l/m 0,0 km/h (0 Bft) O 82 0 min 0,000 mm 0,0 UV-I 0 W/m 5,7 C 10,1 C 0,0 km/h (0 Bft) 0,00 %
29.09.2015 21:35 10,2 C 72 % 1031,6 hPa 0,0 l/m 0,0 km/h (0 Bft) O-NO 67 0 min 0,000 mm 0,0 UV-I 0 W/m 5,4 C 10,2 C 0,0 km/h (0 Bft) 0,00 %
29.09.2015 21:40 10,3 C 73 % 1031,7 hPa 0,0 l/m 0,7 km/h (0 Bft) O-NO 57 0 min 0,000 mm 0,0 UV-I 0 W/m 5,7 C 10,3 C 4,0 km/h (1 Bft) 0,00 %
29.09.2015 21:45 10,4 C 72 % 1031,6 hPa 0,0 l/m 0,0 km/h (0 Bft) NO 39 0 min 0,000 mm 0,0 UV-I 0 W/m 5,6 C 10,4 C 0,0 km/h (0 Bft) 0,00 %
29.09.2015 21:50 10,4 C 72 % 1031,6 hPa 0,0 l/m 0,0 km/h (0 Bft) NO 44 0 min 0,000 mm 0,0 UV-I 0 W/m 5,6 C 10,4 C 0,0 km/h (0 Bft) 0,00 %
29.09.2015 21:55 10,4 C 72 % 1031,6 hPa 0,0 l/m 1,8 km/h (1 Bft) O 80 0 min 0,000 mm 0,0 UV-I 0 W/m 5,6 C 10,4 C 4,0 km/h (1 Bft) 0,00 %
29.09.2015 22:00 10,5 C 71 % 1031,5 hPa 0,0 l/m 0,0 km/h (0 Bft) O 89 0 min 0,000 mm 0,0 UV-I 0 W/m 5,5 C 10,5 C 0,0 km/h (0 Bft) 0,00 %
29.09.2015 22:05 10,5 C 71 % 1031,5 hPa 0,0 l/m 1,4 km/h (1 Bft) O-NO 58 0 min 0,000 mm 0,0 UV-I 0 W/m 5,5 C 10,5 C 4,0 km/h (1 Bft) 0,00 %
29.09.2015 22:10 10,6 C 71 % 1031,7 hPa 0,0 l/m 1,8 km/h (1 Bft) O-NO 59 0 min 0,000 mm 0,0 UV-I 0 W/m 5,6 C 10,6 C 4,0 km/h (1 Bft) 0,00 %
29.09.2015 22:15 10,5 C 70 % 1031,5 hPa 0,0 l/m 0,7 km/h (0 Bft) O-NO 77 0 min 0,000 mm 0,0 UV-I 0 W/m 5,3 C 10,5 C 4,0 km/h (1 Bft) 0,00 %
29.09.2015 22:20 10,5 C 70 % 1031,8 hPa 0,0 l/m 4,0 km/h (1 Bft) O 84 0 min 0,000 mm 0,0 UV-I 0 W/m 5,3 C 10,5 C 7,9 km/h (2 Bft) 0,00 %
29.09.2015 22:25 10,5 C 70 % 1031,7 hPa 0,0 l/m 0,7 km/h (0 Bft) O-NO 75 0 min 0,000 mm 0,0 UV-I 0 W/m 5,3 C 10,5 C 4,0 km/h (1 Bft) 0,00 %
29.09.2015 22:30 10,4 C 70 % 1031,7 hPa 0,0 l/m 0,0 km/h (0 Bft) O-NO 60 0 min 0,000 mm 0,0 UV-I 0 W/m 5,2 C 10,4 C 0,0 km/h (0 Bft) 0,00 %
29.09.2015 22:35 10,3 C 71 % 1031,8 hPa 0,0 l/m 0,0 km/h (0 Bft) O-NO 68 0 min 0,000 mm 0,0 UV-I 0 W/m 5,3 C 10,3 C 0,0 km/h (0 Bft) 0,00 %
29.09.2015 22:40 10,2 C 71 % 1031,7 hPa 0,0 l/m 0,7 km/h (0 Bft) O 84 0 min 0,000 mm 0,0 UV-I 0 W/m 5,2 C 10,2 C 4,0 km/h (1 Bft) 0,00 %
29.09.2015 22:45 10,1 C 72 % 1031,9 hPa 0,0 l/m 1,4 km/h (1 Bft) O 89 0 min 0,000 mm 0,0 UV-I 0 W/m 5,3 C 10,1 C 4,0 km/h (1 Bft) 0,00 %
29.09.2015 22:50 10,0 C 72 % 1031,7 hPa 0,0 l/m 0,7 km/h (0 Bft) O 86 0 min 0,000 mm 0,0 UV-I 0 W/m 5,2 C 10,0 C 4,0 km/h (1 Bft) 0,00 %
29.09.2015 22:55 10,0 C 72 % 1031,7 hPa 0,0 l/m 0,7 km/h (0 Bft) O-NO 63 0 min 0,000 mm 0,0 UV-I 0 W/m 5,2 C 10,0 C 4,0 km/h (1 Bft) 0,00 %
29.09.2015 23:00 9,9 C 72 % 1031,9 hPa 0,0 l/m 4,7 km/h (1 Bft) SO 132 0 min 0,000 mm 0,0 UV-I 0 W/m 5,1 C 9,9 C 7,9 km/h (2 Bft) 0,00 %
29.09.2015 23:05 9,9 C 72 % 1031,7 hPa 0,0 l/m 0,4 km/h (0 Bft) O-NO 73 0 min 0,000 mm 0,0 UV-I 0 W/m 5,1 C 9,9 C 4,0 km/h (1 Bft) 0,00 %
29.09.2015 23:10 9,8 C 72 % 1031,8 hPa 0,0 l/m 2,2 km/h (1 Bft) O-SO 104 0 min 0,000 mm 0,0 UV-I 0 W/m 5,0 C 9,8 C 4,0 km/h (1 Bft) 0,00 %
29.09.2015 23:15 9,7 C 73 % 1031,9 hPa 0,0 l/m 3,2 km/h (1 Bft) O-NO 72 0 min 0,000 mm 0,0 UV-I 0 W/m 5,1 C 9,7 C 4,0 km/h (1 Bft) 0,00 %
29.09.2015 23:20 9,6 C 72 % 1031,9 hPa 0,0 l/m 1,4 km/h (1 Bft) O-SO 110 0 min 0,000 mm 0,0 UV-I 0 W/m 4,8 C 9,6 C 4,0 km/h (1 Bft) 0,00 %
29.09.2015 23:25 9,5 C 72 % 1031,8 hPa 0,0 l/m 4,3 km/h (1 Bft) O-SO 105 0 min 0,000 mm 0,0 UV-I 0 W/m 4,7 C 9,5 C 7,9 km/h (2 Bft) 0,00 %
29.09.2015 23:30 9,4 C 73 % 1031,9 hPa 0,0 l/m 0,4 km/h (0 Bft) O-NO 64 0 min 0,000 mm 0,0 UV-I 0 W/m 4,8 C 9,4 C 4,0 km/h (1 Bft) 0,00 %
29.09.2015 23:35 9,2 C 73 % 1031,9 hPa 0,0 l/m 5,8 km/h (2 Bft) O 97 0 min 0,000 mm 0,0 UV-I 0 W/m 4,6 C 9,2 C 7,9 km/h (2 Bft) 0,00 %
29.09.2015 23:40 8,9 C 75 % 1032,0 hPa 0,0 l/m 1,8 km/h (1 Bft) O 98 0 min 0,000 mm 0,0 UV-I 0 W/m 4,7 C 8,9 C 7,9 km/h (2 Bft) 0,00 %
29.09.2015 23:45 8,7 C 75 % 1032,1 hPa 0,0 l/m 5,4 km/h (1 Bft) O 89 0 min 0,000 mm 0,0 UV-I 0 W/m 4,5 C 8,7 C 7,9 km/h (2 Bft) 0,00 %
29.09.2015 23:50 8,6 C 76 % 1031,9 hPa 0,0 l/m 2,2 km/h (1 Bft) NO 39 0 min 0,000 mm 0,0 UV-I 0 W/m 4,6 C 8,6 C 4,0 km/h (1 Bft) 0,00 %
29.09.2015 23:55 8,5 C 76 % 1031,8 hPa 0,0 l/m 0,7 km/h (0 Bft) O 80 0 min 0,000 mm 0,0 UV-I 0 W/m 4,5 C 8,5 C 4,0 km/h (1 Bft) 0,00 %
_ Min-Zeit 01:44 14:29 15:24 - 00:04 - - - - - - 02:54 01:44 00:04 00:04
Minimum _ 4,1 C 49 % 1030,5 hPa - 0,0 km/h (0 Bft) - - - - - - 2,1 C 4,1 C 0,0 km/h (0 Bft) 0,00 %
_ Max-Zeit 14:34 00:59 07:29 00:04 11:14 - - 08:34 00:04 10:39 14:19 20:50 14:34 12:29 00:04
Maximum _ 15,4 C 88 % 1032,7 hPa 0,0 l/m 14,8 km/h
O (3 Bft)
- - 5 min 0,000 mm 2,0 UV-I 961 W/m 6,1 C 15,4 C 24,1 km/h
O (4 Bft)
0,00 %
Durchschnitt _ 9,9 C 70 % 1031,9 hPa #0,0 l/m 1,7 km/h (1 Bft) O - #3:30 h #0,000 mm 1,4 UV-I 236 W/m 4,3 C 9,7 C 3,0 km/h (1 Bft) 0,00 %